[[{"header":{"parameterUnit":"m.s-1","parameterCategory":2,"la1":30.2991,"la2":30.254,"lo1":-89.0895,"lo2":-89.0444,"dy":0.0017,"dx":0.0017,"nx":28,"ny":28,"refTime":"2025-08-28T03:00:00:Z","depth":"0","parameterNumber":2,"parameterNumberName":"U-component_of_CURRENTS"},"data":[0,0,0,0,0,0,0,0,0,0,0,0,0,0,0,0,0,0,0,0,0,0,0,0,0,0,0,0,0,0,0,0,0,0,0,0,0,0,0,0,0,0,0,0,0,0,0,0,0,0,0,0,0,0,0,0,0,0,-0.2384,-0.2384,0,-0.2404,-0.2404,-0.2404,-0.2413,-0.2413,-0.2413,-0.2414,-0.2485,-0.2487,-0.2488,0,0,0,0,0,0,0,0,0,0,0,0,0,-0.2408,-0.2407,-0.2384,-0.2384,-0.2385,-0.2404,-0.2404,-0.2404,-0.2413,-0.2413,-0.2413,-0.2414,-0.2484,-0.2486,-0.2489,0,0,0,0,0,0,0,0,0,0,0,0,0,-0.2409,-0.2407,-0.2384,-0.2392,-0.2393,-0.2404,-0.2404,-0.2404,-0.2413,-0.2413,-0.2413,-0.2414,-0.2483,-0.2486,-0.2489,-0.2504,0,0,-0.2497,-0.2499,0,0,0,0,0,0,0,0,-0.2408,-0.2408,-0.2391,-0.2392,-0.2393,-0.2407,-0.2438,-0.244,-0.2413,-0.2405,-0.2414,-0.2414,-0.2464,-0.2468,-0.247,-0.2507,-0.251,-0.2498,-0.2499,-0.25,-0.2501,0,0,0,0,0,0,0,-0.2408,-0.2407,-0.2391,-0.2391,-0.2392,-0.2413,-0.2413,-0.2439,-0.2434,-0.2406,-0.2407,-0.241,-0.2465,-0.2467,-0.2472,-0.2512,-0.2497,-0.25,-0.2502,-0.2503,-0.2563,-0.2563,0,0,0,0,0,0,-0.2404,-0.2407,-0.239,-0.2392,-0.2402,-0.2412,-0.2412,-0.2402,-0.2433,-0.2437,-0.241,-0.241,-0.2462,-0.2469,-0.2475,-0.2495,-0.25,-0.2503,-0.2505,-0.2563,-0.2563,-0.2563,0,0,0,0,0,0,-0.2404,-0.2402,-0.239,-0.2401,-0.2401,-0.2412,-0.24,-0.2402,-0.2406,-0.2435,-0.2441,-0.2412,-0.2463,-0.2471,-0.2491,-0.2498,-0.2504,-0.2507,-0.2563,-0.2563,-0.2563,-0.2536,0,0,0,0,0,0,-0.2405,-0.2402,-0.2389,-0.24,-0.24,-0.2398,-0.24,-0.2402,-0.2408,-0.2409,-0.2439,-0.2445,-0.2463,-0.2487,-0.2494,-0.2502,-0.2509,-0.2563,-0.2563,-0.2563,-0.2537,-0.2535,-0.2533,0,0,0,0,0,-0.2405,-0.2389,-0.2388,-0.2386,-0.2383,-0.2398,-0.24,-0.2408,-0.2408,-0.2411,-0.2424,-0.2445,-0.2492,-0.2489,-0.2497,-0.2506,-0.2563,-0.2563,-0.2563,-0.2538,-0.2535,-0.2533,0,0,0,0,0,0,-0.2391,-0.2389,-0.2388,-0.237,-0.2385,-0.24,-0.24,-0.2408,-0.2419,-0.242,-0.2444,-0.2451,-0.2472,-0.2491,-0.2488,-0.2522,-0.2531,-0.2533,-0.2509,-0.2507,-0.2505,-0.2515,-0.2511,0,0,0,0,0,-0.2382,-0.2366,-0.2379,-0.2364,-0.2372,-0.2386,-0.239,-0.24,-0.2414,-0.2419,-0.2438,-0.2459,-0.2478,-0.2493,-0.2513,-0.2535,-0.255,-0.2546,-0.2544,-0.2542,-0.2555,-0.2562,-0.2562,-0.2563,-0.2563,-0.2563,0,0,-0.2371,-0.2368,-0.2358,-0.236,-0.2369,-0.2386,-0.2388,-0.2399,-0.2414,-0.2426,-0.2446,-0.2454,-0.248,-0.2499,-0.2511,-0.2518,-0.255,-0.2542,-0.254,-0.2555,-0.2562,-0.2562,-0.2562,-0.2563,-0.2563,-0.2563,0,0,-0.2352,-0.2341,-0.2331,-0.2347,-0.2362,-0.2378,-0.2383,-0.2402,-0.2411,-0.2429,-0.2438,-0.2447,-0.2481,-0.2496,-0.251,-0.2512,-0.2536,-0.252,-0.2525,-0.2531,-0.2531,-0.2531,-0.2548,-0.255,-0.2522,-0.2522,-0.2522,0,-0.2342,-0.2328,-0.2333,-0.2341,-0.2357,-0.2377,-0.2392,-0.2407,-0.2429,-0.2443,-0.2434,-0.2471,-0.2482,-0.2512,-0.2504,-0.251,-0.252,-0.2529,-0.2528,-0.2529,-0.253,-0.2547,-0.2549,-0.2521,-0.2521,-0.2521,-0.2521,0,-0.2322,-0.2324,-0.2324,-0.2339,-0.236,-0.2374,-0.2407,-0.2425,-0.2435,-0.2451,-0.2474,-0.2478,-0.2503,-0.2501,-0.2502,-0.2518,-0.2525,-0.252,-0.2532,-0.2528,-0.2546,-0.2549,-0.2519,-0.252,-0.252,-0.252,0,0,-0.2265,-0.2303,-0.2301,-0.2325,-0.2363,-0.2383,-0.2415,-0.2453,-0.2481,-0.2487,-0.2517,-0.2519,-0.2517,-0.2531,-0.2531,-0.2532,-0.253,-0.2526,-0.2527,-0.2541,-0.2552,-0.2521,-0.2522,-0.252,-0.2521,-0.2521,-0.2562,0,-0.225,-0.2269,-0.2294,-0.233,-0.2352,-0.2397,-0.2432,-0.2472,-0.2498,-0.2533,-0.2537,-0.256,-0.2532,-0.2538,-0.2532,-0.2537,-0.2538,-0.2521,-0.2557,-0.2559,-0.2529,-0.2524,-0.2429,-0.2453,-0.2565,-0.2565,-0.2566,0,-0.2212,-0.224,-0.2268,-0.2344,-0.2359,-0.2385,-0.2456,-0.2491,-0.2548,-0.2568,-0.2587,-0.2598,-0.2607,-0.2576,-0.2582,-0.2572,-0.256,-0.2557,-0.2558,-0.2544,-0.2533,-0.2477,-0.2455,-0.2441,-0.2571,-0.257,-0.257,0,-0.2163,-0.222,-0.2246,-0.2268,-0.2353,-0.2379,-0.2424,-0.2491,-0.2531,-0.2587,-0.2615,-0.2634,-0.2643,-0.2632,-0.2613,-0.26,-0.2621,-0.2604,-0.2571,-0.2569,-0.2506,-0.2497,-0.2473,-0.2606,-0.2606,-0.2606,-0.2606,0,-0.2129,-0.2149,-0.2226,-0.2242,-0.229,-0.2357,-0.241,-0.2461,-0.2535,-0.2578,-0.262,-0.2648,-0.2653,-0.2665,-0.264,-0.2617,-0.264,-0.2578,-0.2576,-0.2493,-0.2483,-0.2482,-0.2494,-0.2607,-0.2607,-0.2607,-0.2606,0,-0.2056,-0.2106,-0.2144,-0.2234,-0.2263,-0.2291,-0.2392,-0.2428,-0.2511,-0.2569,-0.2586,-0.2661,-0.268,-0.269,-0.2688,-0.265,-0.2592,-0.262,-0.2529,-0.2514,-0.2455,-0.2469,-0.2446,-0.2377,-0.2592,-0.2592,-0.2591,0,-0.2015,-0.2025,-0.2116,-0.2139,-0.2173,-0.2235,-0.2275,-0.2387,-0.2431,-0.2563,-0.2579,-0.2647,-0.2671,-0.2683,-0.2644,-0.2622,-0.258,-0.251,-0.2458,-0.2444,-0.2459,-0.2445,-0.2387,-0.2367,-0.2364,-0.2363,-0.2361,0,-0.1935,-0.1963,-0.1999,-0.2049,-0.2091,-0.2147,-0.2216,-0.2259,-0.2387,-0.2452,-0.2532,-0.2575,-0.2625,-0.2581,-0.2571,-0.2521,-0.2443,-0.247,-0.2471,-0.2296,-0.2264,-0.2198,-0.2367,-0.2344,-0.2346,-0.2347,-0.2348,-0.2349,-0.1857,-0.186,-0.1902,-0.1944,-0.1991,-0.2027,-0.2035,-0.2133,-0.2201,-0.2287,-0.2407,-0.2465,-0.2491,-0.2472,-0.2436,-0.2337,-0.2354,-0.2252,-0.2278,-0.2272,-0.2174,-0.2315,-0.2278,-0.2279,-0.228,-0.2281,-0.2282,0,-0.1749,-0.1767,-0.1796,-0.1835,-0.1834,-0.1901,-0.1964,-0.1958,-0.1996,-0.2135,-0.2204,-0.2318,-0.2281,-0.2306,-0.2252,-0.2169,-0.2087,-0.2105,-0.2056,-0.2009,-0.2142,-0.2099,-0.2002,-0.2002,-0.2002,-0.2002,-0.2002,-0.2002,-0.169,-0.1673,-0.1696,-0.166,-0.1683,-0.164,-0.1647,-0.167,-0.1739,-0.1837,-0.1968,-0.2122,-0.2173,-0.2302,-0.2196,-0.2088,-0.2012,-0.1951,-0.1967,-0.207,-0.2085,-0.21,-0.206,-0.1956,-0.1956,-0.1744,-0.1743,-0.1742]},{"header":{"parameterUnit":"m.s-1","parameterCategory":2,"la1":30.2991,"la2":30.254,"lo1":-89.0895,"lo2":-89.0444,"dy":0.0017,"dx":0.0017,"nx":28,"ny":28,"refTime":"2025-08-28T03:00:00:Z","depth":"0","parameterNumber":3,"parameterNumberName":"V-component_of_CURRENTS"},"data":[0,0,0,0,0,0,0,0,0,0,0,0,0,0,0,0,0,0,0,0,0,0,0,0,0,0,0,0,0,0,0,0,0,0,0,0,0,0,0,0,0,0,0,0,0,0,0,0,0,0,0,0,0,0,0,0,0,0,-0.0231,-0.023,0,-0.0133,-0.0132,-0.0131,-0.0068,-0.0068,-0.0068,-0.0067,0.0082,0.0086,0.0089,0,0,0,0,0,0,0,0,0,0,0,0,0,-0.0323,-0.0322,-0.0231,-0.023,-0.0229,-0.0133,-0.0132,-0.013,-0.0069,-0.0068,-0.0068,-0.0067,0.0081,0.0085,0.009,0,0,0,0,0,0,0,0,0,0,0,0,0,-0.026,-0.0322,-0.0231,-0.0187,-0.0182,-0.0133,-0.0132,-0.013,-0.0069,-0.0068,-0.0068,-0.0067,0.008,0.0085,0.009,0.0114,0,0,0.0107,0.0109,0,0,0,0,0,0,0,0,-0.0264,-0.0257,-0.0194,-0.019,-0.0184,-0.0112,-0.0109,-0.0046,-0.0069,-0.0111,-0.0067,-0.0067,0.0021,0.0032,0.0048,0.0121,0.0127,0.0108,0.0111,0.0113,0.0115,0,0,0,0,0,0,0,-0.0268,-0.026,-0.0192,-0.0193,-0.0187,-0.0157,-0.0148,-0.0097,-0.0048,-0.0108,-0.0103,-0.0092,0.0025,0.0043,0.0053,0.013,0.0107,0.0112,0.0116,0.0118,0.0231,0.0231,0,0,0,0,0,0,-0.0283,-0.0265,-0.0195,-0.0189,-0.0223,-0.0156,-0.0145,-0.0136,-0.005,-0.0036,-0.0093,-0.009,0.0033,0.0046,0.0058,0.0089,0.0113,0.0118,0.0122,0.0232,0.0231,0.0231,0,0,0,0,0,0,-0.0286,-0.0278,-0.0199,-0.0225,-0.0213,-0.0155,-0.0144,-0.0134,-0.0114,-0.0039,-0.0025,-0.0083,0.0034,0.005,0.0096,0.0095,0.0121,0.0126,0.0232,0.0231,0.0231,0.0152,0,0,0,0,0,0,-0.0289,-0.028,-0.0279,-0.0226,-0.0212,-0.0175,-0.0145,-0.0133,-0.0108,-0.0103,-0.0026,-0.0011,0.0036,0.0088,0.0102,0.0103,0.013,0.0232,0.0232,0.0231,0.0155,0.0149,0.0143,0,0,0,0,0,-0.0292,-0.0292,-0.0279,-0.0271,-0.0212,-0.0175,-0.0165,-0.0122,-0.0109,-0.0102,-0.0055,-0.0014,0.0095,0.0092,0.0109,0.0111,0.0233,0.0232,0.0231,0.0157,0.015,0.0144,0,0,0,0,0,0,-0.0333,-0.0284,-0.0269,-0.0255,-0.0221,-0.0164,-0.0154,-0.0128,-0.0086,-0.0081,-0.0015,0.0003,0.0041,0.0086,0.0081,0.0142,0.017,0.0172,0.0108,0.0101,0.0096,0.0087,0.0135,0,0,0,0,0,-0.0343,-0.0329,-0.0281,-0.0272,-0.0257,-0.0209,-0.0189,-0.0161,-0.0117,-0.0098,-0.0047,0.0006,0.0051,0.0082,0.0129,0.0165,0.0208,0.0177,0.0172,0.0167,0.0171,0.0223,0.0223,0.0229,0.0229,0.0229,0,0,-0.0358,-0.0328,-0.0322,-0.0279,-0.025,-0.0235,-0.0195,-0.017,-0.0156,-0.0088,-0.0057,-0.0012,0.0055,0.0091,0.0113,0.013,0.0186,0.0166,0.0161,0.0168,0.0223,0.0222,0.0222,0.0228,0.0229,0.0229,0,0,-0.0378,-0.0354,-0.035,-0.0326,-0.0286,-0.0256,-0.0253,-0.0202,-0.0178,-0.0145,-0.0097,-0.0054,0.0017,0.0063,0.0096,0.009,0.015,0.0103,0.0076,0.0126,0.0126,0.0126,0.0169,0.0174,0.0104,0.0104,0.0104,0,-0.04,-0.0387,-0.0344,-0.0335,-0.0325,-0.0272,-0.0273,-0.0239,-0.0181,-0.0162,-0.0145,-0.0047,0.0005,0.0056,0.0051,0.0078,0.0113,0.0093,0.0118,0.0119,0.0121,0.0166,0.0172,0.01,0.0101,0.0101,0.0102,0,-0.0414,-0.0408,-0.0405,-0.038,-0.0363,-0.0355,-0.0309,-0.0288,-0.0257,-0.0218,-0.0167,-0.0098,-0.0038,-0.0019,0.0017,0.0055,0.0077,0.0099,0.0132,0.0116,0.0163,0.0172,0.0095,0.0096,0.0097,0.0098,0,0,-0.0455,-0.0424,-0.0424,-0.043,-0.0389,-0.0382,-0.036,-0.0325,-0.0314,-0.0252,-0.0226,-0.015,-0.0109,-0.007,-0.0018,0.0028,0.0065,0.0063,0.0067,0.0099,0.0172,0.0212,0.0225,0.0089,0.009,0.0091,0.0195,0,-0.0483,-0.0491,-0.0461,-0.0478,-0.0485,-0.044,-0.0429,-0.039,-0.0345,-0.0305,-0.0223,-0.0178,-0.0128,-0.0104,-0.005,0.004,0.0085,0.0035,0.0189,0.0193,0.0226,0.0236,0.0265,0.0363,0.0204,0.0205,0.0206,0,-0.0505,-0.0512,-0.0533,-0.0539,-0.0538,-0.0536,-0.0517,-0.0497,-0.0421,-0.0385,-0.0315,-0.0247,-0.016,-0.0126,0.0027,-0.0008,0.0072,0.014,0.0146,0.0221,0.0249,0.0357,0.0385,0.0558,0.022,0.0219,0.0218,0,-0.0558,-0.0565,-0.059,-0.059,-0.058,-0.0583,-0.0575,-0.0521,-0.0511,-0.0429,-0.0408,-0.029,-0.0233,-0.0111,0.0038,0.0032,0.0203,0.0215,0.0328,0.0331,0.0408,0.0416,0.0619,0.0314,0.0314,0.0313,0.0313,0,-0.0598,-0.062,-0.062,-0.0635,-0.0677,-0.0643,-0.0663,-0.063,-0.0582,-0.0569,-0.0454,-0.0415,-0.0228,-0.0104,0.0027,0.0211,0.0201,0.0332,0.0366,0.038,0.0384,0.0579,0.0636,0.0317,0.0316,0.0316,0.0315,0,-0.0645,-0.0639,-0.0678,-0.069,-0.0699,-0.0728,-0.0737,-0.0748,-0.0686,-0.0663,-0.0641,-0.0499,-0.0328,-0.0136,0.0073,0.0196,0.0466,0.0426,0.0427,0.046,0.0723,0.0772,0.0988,0.1066,0.0572,0.0574,0.0575,0,-0.0667,-0.0688,-0.0732,-0.0771,-0.0779,-0.0815,-0.0843,-0.0806,-0.0809,-0.0716,-0.071,-0.0541,-0.0413,-0.0081,0.0175,0.0433,0.0545,0.0598,0.0597,0.0756,0.0837,0.0866,0.0917,0.0664,0.0666,0.0668,0.0669,0,-0.0718,-0.0729,-0.0766,-0.0849,-0.0895,-0.0946,-0.0971,-0.0988,-0.0933,-0.0897,-0.081,-0.0696,-0.035,-0.003,0.0319,0.0472,0.0722,0.064,0.0817,0.0941,0.0976,0.106,0.0569,0.0684,0.0683,0.0682,0.0681,0.068,-0.0754,-0.0802,-0.0855,-0.0932,-0.0994,-0.1057,-0.1098,-0.1103,-0.1103,-0.1027,-0.0897,-0.0699,-0.0204,0.0303,0.0491,0.0913,0.0861,0.1035,0.1084,0.1102,0.1177,0.0714,0.0858,0.0857,0.0857,0.0857,0.0856,0,-0.0805,-0.0858,-0.0939,-0.1027,-0.1111,-0.112,-0.1173,-0.1198,-0.1202,-0.1077,-0.096,-0.0435,0.0058,0.0522,0.1121,0.135,0.1386,0.1462,0.1526,0.1558,0.1174,0.1179,0.1386,0.1386,0.1386,0.1386,0.1386,0.1385,-0.0834,-0.0922,-0.0968,-0.111,-0.1172,-0.1264,-0.1295,-0.1306,-0.1237,-0.1024,-0.0746,-0.052,0.019,0.118,0.1747,0.1793,0.1962,0.1946,0.2036,0.1793,0.1757,0.1723,0.1746,0.2068,0.2069,0.2405,0.2409,0.2412]}],[{"header":{"parameterUnit":"m.s-1","parameterCategory":2,"la1":30.2991,"la2":30.254,"lo1":-89.0895,"lo2":-89.0444,"dy":0.0017,"dx":0.0017,"nx":28,"ny":28,"refTime":"2025-08-28T03:00:00:Z","depth":"2","parameterNumber":2,"parameterNumberName":"U-component_of_CURRENTS"},"data":[0,0,0,0,0,0,0,0,0,0,0,0,0,0,0,0,0,0,0,0,0,0,0,0,0,0,0,0,0,0,0,0,0,0,0,0,0,0,0,0,0,0,0,0,0,0,0,0,0,0,0,0,0,0,0,0,0,0,-0.2207,-0.2207,0,-0.2221,-0.2221,-0.2221,-0.2227,-0.2227,-0.2227,-0.2227,-0.2275,-0.2276,-0.2278,0,0,0,0,0,0,0,0,0,0,0,0,0,-0.2209,-0.2209,-0.2207,-0.2207,-0.2207,-0.2221,-0.2221,-0.2221,-0.2227,-0.2227,-0.2227,-0.2227,-0.2275,-0.2276,-0.2278,0,0,0,0,0,0,0,0,0,0,0,0,0,-0.2213,-0.2209,-0.2207,-0.2213,-0.2214,-0.2221,-0.2221,-0.2221,-0.2227,-0.2227,-0.2227,-0.2227,-0.2274,-0.2276,-0.2278,-0.2285,0,0,-0.2283,-0.2284,0,0,0,0,0,0,0,0,-0.2212,-0.2212,-0.2212,-0.2213,-0.2214,-0.2224,-0.2239,-0.2245,-0.2227,-0.222,-0.2227,-0.2227,-0.2262,-0.2265,-0.2264,-0.2287,-0.2289,-0.2283,-0.2284,-0.2285,-0.2286,0,0,0,0,0,0,0,-0.2212,-0.2212,-0.2211,-0.2212,-0.2213,-0.2224,-0.2224,-0.224,-0.2239,-0.2221,-0.2222,-0.2226,-0.2263,-0.2263,-0.2266,-0.229,-0.2283,-0.2285,-0.2286,-0.2287,-0.2327,-0.2327,0,0,0,0,0,0,-0.2212,-0.2211,-0.221,-0.2211,-0.2215,-0.2224,-0.2224,-0.2219,-0.2239,-0.2242,-0.2226,-0.2226,-0.226,-0.2264,-0.2267,-0.2287,-0.2285,-0.2287,-0.2288,-0.2327,-0.2327,-0.2327,0,0,0,0,0,0,-0.2212,-0.2211,-0.221,-0.2214,-0.2214,-0.2223,-0.2218,-0.2219,-0.2224,-0.2242,-0.2246,-0.223,-0.226,-0.2265,-0.2279,-0.2289,-0.2288,-0.2289,-0.2327,-0.2327,-0.2327,-0.232,0,0,0,0,0,0,-0.2212,-0.2211,-0.2204,-0.2213,-0.2214,-0.2218,-0.2218,-0.2219,-0.2226,-0.2227,-0.2247,-0.2251,-0.226,-0.2276,-0.2281,-0.2291,-0.2291,-0.2327,-0.2327,-0.2327,-0.232,-0.2319,-0.2319,0,0,0,0,0,-0.2211,-0.2202,-0.2203,-0.2203,-0.2205,-0.2218,-0.2219,-0.2226,-0.2227,-0.223,-0.2237,-0.2251,-0.228,-0.2277,-0.2283,-0.2294,-0.2327,-0.2327,-0.2327,-0.232,-0.232,-0.2319,0,0,0,0,0,0,-0.2196,-0.2203,-0.2203,-0.2195,-0.2208,-0.222,-0.2221,-0.2227,-0.2235,-0.2236,-0.225,-0.2255,-0.2271,-0.2281,-0.2278,-0.2305,-0.2307,-0.2308,-0.2299,-0.2299,-0.2299,-0.2308,-0.2292,0,0,0,0,0,-0.219,-0.2184,-0.2198,-0.219,-0.2198,-0.221,-0.2214,-0.2223,-0.2233,-0.2236,-0.2249,-0.2262,-0.2274,-0.2285,-0.2297,-0.2313,-0.2323,-0.2323,-0.2323,-0.2322,-0.2333,-0.2339,-0.234,-0.2327,-0.2327,-0.2327,0,0,-0.218,-0.2183,-0.2179,-0.2187,-0.2195,-0.221,-0.2213,-0.2224,-0.2237,-0.2241,-0.2258,-0.2262,-0.2277,-0.2291,-0.23,-0.2302,-0.2332,-0.2323,-0.2322,-0.2333,-0.2339,-0.234,-0.2342,-0.2328,-0.2328,-0.2328,0,0,-0.2166,-0.2164,-0.216,-0.2176,-0.2193,-0.2207,-0.2212,-0.223,-0.2238,-0.2253,-0.2258,-0.2265,-0.2287,-0.2296,-0.2305,-0.2311,-0.2327,-0.2317,-0.2327,-0.2332,-0.2333,-0.2334,-0.235,-0.2353,-0.2319,-0.2319,-0.2319,0,-0.2156,-0.2152,-0.2162,-0.2172,-0.2188,-0.2207,-0.2222,-0.2235,-0.2254,-0.2267,-0.2259,-0.2286,-0.229,-0.2314,-0.231,-0.2311,-0.232,-0.2326,-0.2331,-0.2333,-0.2334,-0.235,-0.2353,-0.2318,-0.2318,-0.2318,-0.2318,0,-0.2143,-0.215,-0.2152,-0.2172,-0.2191,-0.2205,-0.2236,-0.2254,-0.2265,-0.2279,-0.2301,-0.23,-0.2318,-0.2317,-0.2314,-0.2331,-0.2336,-0.2327,-0.2332,-0.2335,-0.2352,-0.2355,-0.2318,-0.2318,-0.2318,-0.2318,0,0,-0.2095,-0.2136,-0.2136,-0.2158,-0.2195,-0.2213,-0.2244,-0.2279,-0.2307,-0.2313,-0.2343,-0.2342,-0.2342,-0.235,-0.2348,-0.235,-0.2355,-0.2342,-0.2342,-0.2358,-0.2378,-0.2344,-0.2344,-0.2346,-0.2346,-0.2347,-0.2386,0,-0.2082,-0.2104,-0.213,-0.2164,-0.2184,-0.2227,-0.226,-0.2297,-0.2323,-0.2357,-0.2361,-0.2382,-0.2356,-0.2363,-0.2359,-0.2361,-0.2364,-0.2347,-0.2373,-0.2374,-0.2344,-0.2347,-0.2144,-0.2159,-0.2389,-0.239,-0.239,0,-0.2052,-0.208,-0.2107,-0.2177,-0.219,-0.2215,-0.2282,-0.2315,-0.237,-0.2391,-0.2411,-0.2421,-0.2431,-0.2403,-0.2409,-0.2399,-0.2388,-0.2384,-0.2385,-0.2361,-0.2346,-0.2193,-0.2156,-0.2396,-0.2395,-0.2395,-0.2395,0,-0.2008,-0.2062,-0.2086,-0.2107,-0.2185,-0.2211,-0.2253,-0.2317,-0.2355,-0.2412,-0.244,-0.2459,-0.2469,-0.2458,-0.2441,-0.2428,-0.2448,-0.243,-0.2395,-0.2393,-0.2231,-0.2214,-0.2433,-0.2433,-0.2433,-0.2433,-0.2433,0,-0.1977,-0.1996,-0.2068,-0.2083,-0.2127,-0.2191,-0.2241,-0.2291,-0.2363,-0.2403,-0.2446,-0.2473,-0.248,-0.2491,-0.2467,-0.2443,-0.2467,-0.2404,-0.2399,-0.2223,-0.2206,-0.2419,-0.2416,-0.2434,-0.2434,-0.2434,-0.2433,0,-0.191,-0.1958,-0.1992,-0.2076,-0.2103,-0.213,-0.2226,-0.226,-0.2342,-0.2397,-0.2415,-0.2488,-0.2506,-0.2515,-0.2513,-0.2475,-0.2458,-0.2443,-0.2245,-0.2216,-0.2397,-0.2394,-0.2414,-0.2413,-0.2412,-0.2412,-0.2411,0,-0.1873,-0.1882,-0.1966,-0.1987,-0.202,-0.2079,-0.2117,-0.2223,-0.2264,-0.2392,-0.2405,-0.2472,-0.2489,-0.2499,-0.2448,-0.2421,-0.2455,-0.2217,-0.2151,-0.24,-0.2395,-0.2393,-0.2391,-0.1933,-0.1929,-0.1925,-0.1923,0,-0.1798,-0.1825,-0.1857,-0.1904,-0.1942,-0.1994,-0.2058,-0.2097,-0.2219,-0.228,-0.2354,-0.239,-0.2424,-0.2313,-0.2295,-0.2236,-0.2205,-0.2145,-0.2442,-0.1978,-0.1952,-0.1945,-0.1958,-0.189,-0.1894,-0.1896,-0.1898,-0.1899,-0.1726,-0.1728,-0.1766,-0.1803,-0.1847,-0.1878,-0.1883,-0.197,-0.203,-0.2093,-0.221,-0.2205,-0.2205,-0.2089,-0.2002,-0.1925,-0.2074,-0.1948,-0.1956,-0.1969,-0.1915,-0.1889,-0.1806,-0.1809,-0.1811,-0.1813,-0.1815,0,-0.1621,-0.1639,-0.1664,-0.1697,-0.1693,-0.176,-0.1814,-0.1793,-0.182,-0.1906,-0.1954,-0.1794,-0.175,-0.1754,-0.1607,-0.1593,-0.1542,-0.1502,-0.1421,-0.1454,-0.1484,-0.1402,-0.116,-0.1158,-0.1156,-0.1154,0,0,-0.1565,-0.1545,-0.1565,-0.1526,-0.1549,-0.1501,-0.1506,-0.1501,-0.1525,-0.1504,-0.1509,-0.1661,-0.1712,-0.1439,-0.1375,-0.1247,-0.1329,-0.1178,-0.1702,-0.1639,-0.1666,-0.1739,-0.1652,0,0,0,0,0]},{"header":{"parameterUnit":"m.s-1","parameterCategory":2,"la1":30.2991,"la2":30.254,"lo1":-89.0895,"lo2":-89.0444,"dy":0.0017,"dx":0.0017,"nx":28,"ny":28,"refTime":"2025-08-28T03:00:00:Z","depth":"2","parameterNumber":3,"parameterNumberName":"V-component_of_CURRENTS"},"data":[0,0,0,0,0,0,0,0,0,0,0,0,0,0,0,0,0,0,0,0,0,0,0,0,0,0,0,0,0,0,0,0,0,0,0,0,0,0,0,0,0,0,0,0,0,0,0,0,0,0,0,0,0,0,0,0,0,0,-0.0189,-0.0188,0,-0.0094,-0.0093,-0.0092,-0.0033,-0.0033,-0.0033,-0.0033,0.0109,0.0112,0.0116,0,0,0,0,0,0,0,0,0,0,0,0,0,-0.0273,-0.0272,-0.0189,-0.0188,-0.0187,-0.0094,-0.0093,-0.0092,-0.0034,-0.0033,-0.0033,-0.0033,0.0108,0.0112,0.0116,0,0,0,0,0,0,0,0,0,0,0,0,0,-0.0213,-0.0272,-0.019,-0.0147,-0.0142,-0.0095,-0.0093,-0.0091,-0.0034,-0.0033,-0.0033,-0.0032,0.0106,0.0111,0.0117,0.014,0,0,0.0133,0.0135,0,0,0,0,0,0,0,0,-0.0217,-0.021,-0.0154,-0.015,-0.0144,-0.0076,-0.0071,-0.0012,-0.0034,-0.0075,-0.0033,-0.0032,0.0051,0.0061,0.0077,0.0147,0.0153,0.0133,0.0136,0.0139,0.014,0,0,0,0,0,0,0,-0.0221,-0.0214,-0.0151,-0.0153,-0.0147,-0.0116,-0.0108,-0.0059,-0.0014,-0.0071,-0.0067,-0.0057,0.0054,0.0072,0.0081,0.0155,0.0133,0.0138,0.0141,0.0143,0.0251,0.0251,0,0,0,0,0,0,-0.0236,-0.0218,-0.0155,-0.0149,-0.0181,-0.0116,-0.0106,-0.0098,-0.0016,-0.0003,-0.0057,-0.0054,0.0063,0.0075,0.0087,0.0115,0.0138,0.0143,0.0146,0.0251,0.0251,0.025,0,0,0,0,0,0,-0.0238,-0.0232,-0.0158,-0.0181,-0.017,-0.0115,-0.0106,-0.0096,-0.0077,-0.0006,0.0008,-0.0048,0.0064,0.0079,0.0123,0.0121,0.0146,0.0151,0.0251,0.0251,0.0251,0.0176,0,0,0,0,0,0,-0.0241,-0.0233,-0.0233,-0.0182,-0.0169,-0.0135,-0.0106,-0.0095,-0.0072,-0.0067,0.0007,0.002,0.0065,0.0114,0.0128,0.0129,0.0155,0.0252,0.0251,0.0251,0.0179,0.0173,0.0168,0,0,0,0,0,-0.0245,-0.0246,-0.0234,-0.0226,-0.0171,-0.0135,-0.0126,-0.0085,-0.0072,-0.0066,-0.0021,0.0018,0.0121,0.0118,0.0134,0.0137,0.0252,0.0251,0.0251,0.0181,0.0174,0.0168,0,0,0,0,0,0,-0.0282,-0.0238,-0.0224,-0.0212,-0.018,-0.0125,-0.0115,-0.009,-0.005,-0.0046,0.0017,0.0034,0.007,0.0112,0.0108,0.0166,0.0192,0.0195,0.0134,0.0128,0.0122,0.0114,0.0159,0,0,0,0,0,-0.0292,-0.0281,-0.0236,-0.0228,-0.0215,-0.0168,-0.0149,-0.0123,-0.0081,-0.0063,-0.0014,0.0036,0.008,0.0109,0.0154,0.0188,0.023,0.02,0.0194,0.0189,0.0193,0.0245,0.0245,0.0248,0.0248,0.0248,0,0,-0.0306,-0.028,-0.0274,-0.0236,-0.0208,-0.0194,-0.0156,-0.0131,-0.0119,-0.0053,-0.0024,0.002,0.0083,0.0118,0.0139,0.0155,0.0208,0.0189,0.0184,0.0191,0.0244,0.0244,0.0244,0.0248,0.0248,0.0248,0,0,-0.0326,-0.0305,-0.0302,-0.028,-0.0243,-0.0214,-0.0212,-0.0163,-0.014,-0.0108,-0.0062,-0.0021,0.0047,0.0091,0.0123,0.0117,0.0174,0.0129,0.0103,0.0152,0.0153,0.0153,0.0195,0.02,0.013,0.013,0.013,0,-0.0347,-0.0336,-0.0297,-0.0289,-0.0279,-0.023,-0.0231,-0.0198,-0.0143,-0.0125,-0.0109,-0.0014,0.0035,0.0085,0.008,0.0106,0.014,0.012,0.0145,0.0147,0.0149,0.0192,0.0198,0.0126,0.0127,0.0127,0.0128,0,-0.0361,-0.0356,-0.0354,-0.0331,-0.0315,-0.0308,-0.0265,-0.0245,-0.0216,-0.0179,-0.013,-0.0064,-0.0006,0.0013,0.0047,0.0085,0.0105,0.0127,0.0158,0.0144,0.019,0.0198,0.0121,0.0122,0.0124,0.0124,0,0,-0.04,-0.0372,-0.0373,-0.0379,-0.0341,-0.0334,-0.0314,-0.0281,-0.0269,-0.0211,-0.0186,-0.0113,-0.0074,-0.0036,0.0015,0.006,0.0097,0.0093,0.0098,0.0129,0.0202,0.0235,0.0248,0.0121,0.0122,0.0123,0.0224,0,-0.0427,-0.0436,-0.0408,-0.0425,-0.0431,-0.0389,-0.0379,-0.0342,-0.0299,-0.0261,-0.0182,-0.0139,-0.0092,-0.0068,-0.0015,0.0073,0.0117,0.0068,0.0217,0.0222,0.0249,0.0258,0.0219,0.0308,0.0233,0.0234,0.0235,0,-0.0449,-0.0457,-0.0477,-0.0482,-0.0482,-0.048,-0.0463,-0.0444,-0.0372,-0.0338,-0.0271,-0.0205,-0.0121,-0.0088,0.0061,0.0026,0.0105,0.0171,0.0177,0.0243,0.0271,0.0314,0.0326,0.025,0.0248,0.0247,0.0246,0,-0.0501,-0.0507,-0.0532,-0.0532,-0.0522,-0.0526,-0.0519,-0.0467,-0.0458,-0.038,-0.036,-0.0246,-0.019,-0.0072,0.0072,0.0066,0.0233,0.0246,0.035,0.0353,0.0369,0.0372,0.0343,0.0342,0.0342,0.0342,0.0342,0,-0.054,-0.0561,-0.0561,-0.0575,-0.0616,-0.0583,-0.0604,-0.0573,-0.0527,-0.0515,-0.0404,-0.0366,-0.0185,-0.0066,0.0061,0.0238,0.0231,0.0354,0.0387,0.0341,0.034,0.033,0.0328,0.0346,0.0345,0.0344,0.0343,0,-0.0586,-0.058,-0.0617,-0.0629,-0.0638,-0.0667,-0.0676,-0.0686,-0.0628,-0.0606,-0.0584,-0.0447,-0.0282,-0.0098,0.0105,0.0223,0.0386,0.0444,0.0376,0.04,0.0473,0.0466,0.0577,0.0579,0.0581,0.0582,0.0583,0,-0.0608,-0.0628,-0.0671,-0.0708,-0.0716,-0.0752,-0.0779,-0.0744,-0.0746,-0.0656,-0.0649,-0.0487,-0.0365,-0.0046,0.019,0.0435,0.0431,0.0533,0.0523,0.0479,0.05,0.0489,0.0479,0.051,0.051,0.0511,0.0511,0,-0.0659,-0.067,-0.0704,-0.0785,-0.0829,-0.0879,-0.0903,-0.0918,-0.0864,-0.083,-0.0745,-0.0636,-0.0313,-0.0043,0.0285,0.042,0.0496,0.0551,0.0536,0.0455,0.0424,0.0442,0.0433,0.0515,0.0515,0.0514,0.0514,0.0514,-0.0695,-0.0741,-0.0792,-0.0866,-0.0926,-0.0985,-0.1025,-0.1027,-0.1026,-0.0947,-0.0826,-0.064,-0.035,0.011,0.0344,0.0565,0.0565,0.0616,0.0611,0.0607,0.0579,0.0554,0.0663,0.0664,0.0664,0.0664,0.0665,0,-0.0745,-0.0796,-0.0875,-0.0959,-0.1037,-0.1048,-0.1097,-0.1112,-0.1113,-0.0994,-0.0881,-0.0564,-0.0233,0.0069,0.0425,0.064,0.0617,0.0666,0.0592,0.0587,0.0583,0.0551,0.063,0.063,0.0631,0.0631,0,0,-0.0774,-0.0858,-0.0902,-0.1036,-0.1097,-0.1183,-0.1212,-0.1205,-0.1136,-0.1029,-0.0873,-0.0628,-0.0244,-0.0001,0.0274,0.0458,0.0458,0.047,0.0475,0.035,0.0342,0.0534,0.0479,0,0,0,0,0]}],[{"header":{"parameterUnit":"m.s-1","parameterCategory":2,"la1":30.2991,"la2":30.254,"lo1":-89.0895,"lo2":-89.0444,"dy":0.0017,"dx":0.0017,"nx":28,"ny":28,"refTime":"2025-08-28T03:00:00:Z","depth":"4","parameterNumber":2,"parameterNumberName":"U-component_of_CURRENTS"},"data":[0,0,0,0,0,0,0,0,0,0,0,0,0,0,0,0,0,0,0,0,0,0,0,0,0,0,0,0,0,0,0,0,0,0,0,0,0,0,0,0,0,0,0,0,0,0,0,0,0,0,0,0,0,0,0,0,0,0,-0.1576,-0.1577,0,-0.1613,-0.1614,-0.1614,-0.1655,-0.1656,-0.1656,-0.1657,-0.1667,-0.1666,-0.1666,0,0,0,0,0,0,0,0,0,0,0,0,0,-0.1439,-0.1442,-0.1576,-0.1577,-0.1578,-0.1613,-0.1614,-0.1614,-0.1655,-0.1656,-0.1657,-0.1658,-0.1667,-0.1666,-0.1665,0,0,0,0,0,0,0,0,0,0,0,0,0,-0.1488,-0.1443,-0.1576,-0.1604,-0.1607,-0.1613,-0.1614,-0.1614,-0.1654,-0.1656,-0.1657,-0.1658,-0.1667,-0.1666,-0.1665,-0.1637,0,0,-0.1663,-0.1663,0,0,0,0,0,0,0,0,-0.1485,-0.1493,-0.1599,-0.1602,-0.1605,-0.1633,-0.1569,-0.1621,-0.1654,-0.1634,-0.1657,-0.1659,-0.1653,-0.1654,-0.1655,-0.1637,-0.1638,-0.1663,-0.1663,-0.1662,-0.1662,0,0,0,0,0,0,0,-0.1482,-0.1491,-0.1589,-0.16,-0.1604,-0.158,-0.1589,-0.1578,-0.1634,-0.1636,-0.164,-0.1647,-0.1655,-0.1656,-0.1656,-0.1638,-0.1663,-0.1662,-0.1662,-0.1662,-0.17,-0.1701,0,0,0,0,0,0,-0.1486,-0.1488,-0.1588,-0.159,-0.155,-0.1582,-0.1592,-0.1621,-0.1635,-0.1639,-0.1646,-0.1649,-0.1656,-0.1656,-0.1656,-0.1702,-0.1662,-0.1662,-0.1661,-0.1698,-0.17,-0.1702,0,0,0,0,0,0,-0.1484,-0.1496,-0.1586,-0.154,-0.155,-0.1584,-0.1616,-0.1621,-0.1652,-0.1643,-0.1647,-0.1675,-0.1657,-0.1657,-0.1683,-0.17,-0.1661,-0.1661,-0.1697,-0.1699,-0.1701,-0.1743,0,0,0,0,0,0,-0.148,-0.1495,-0.1526,-0.1541,-0.1553,-0.1608,-0.1615,-0.1621,-0.1654,-0.1659,-0.1669,-0.167,-0.1658,-0.1685,-0.1683,-0.1698,-0.166,-0.1695,-0.1698,-0.17,-0.1739,-0.1746,-0.1752,0,0,0,0,0,-0.1475,-0.1508,-0.1528,-0.154,-0.1593,-0.1609,-0.1613,-0.1637,-0.1655,-0.167,-0.1688,-0.1671,-0.1701,-0.1685,-0.1682,-0.1698,-0.1693,-0.1697,-0.17,-0.1737,-0.1745,-0.1752,0,0,0,0,0,0,-0.1451,-0.1516,-0.1538,-0.1587,-0.1607,-0.1617,-0.1636,-0.1652,-0.1677,-0.1691,-0.1685,-0.1687,-0.1716,-0.1705,-0.1689,-0.172,-0.1695,-0.1698,-0.1724,-0.1731,-0.1737,-0.1736,-0.1659,0,0,0,0,0,-0.1464,-0.1521,-0.1551,-0.1592,-0.1604,-0.1626,-0.164,-0.1658,-0.1676,-0.1691,-0.1701,-0.1713,-0.1721,-0.1728,-0.1731,-0.1742,-0.1735,-0.1754,-0.176,-0.1765,-0.1764,-0.1771,-0.1777,-0.1712,-0.1712,-0.1712,0,0,-0.1467,-0.1509,-0.1541,-0.1593,-0.1611,-0.163,-0.1638,-0.1668,-0.1691,-0.1684,-0.1727,-0.1734,-0.1731,-0.1752,-0.1763,-0.1748,-0.1784,-0.1769,-0.1773,-0.177,-0.1775,-0.1781,-0.1787,-0.1715,-0.1714,-0.1714,0,0,-0.1476,-0.1536,-0.1574,-0.1597,-0.1636,-0.165,-0.1666,-0.1694,-0.1719,-0.1751,-0.1759,-0.1782,-0.1793,-0.1796,-0.1797,-0.1837,-0.1817,-0.1844,-0.1868,-0.1875,-0.188,-0.1884,-0.1895,-0.1899,-0.1844,-0.1844,-0.1844,0,-0.147,-0.1532,-0.158,-0.1607,-0.163,-0.1663,-0.1684,-0.1708,-0.1745,-0.1768,-0.1774,-0.1813,-0.181,-0.1833,-0.1851,-0.1849,-0.1853,-0.1837,-0.1882,-0.1885,-0.1889,-0.1898,-0.1903,-0.1847,-0.1846,-0.1846,-0.1846,0,-0.1498,-0.1547,-0.1565,-0.1625,-0.1652,-0.1678,-0.1715,-0.1752,-0.1787,-0.1808,-0.1854,-0.1859,-0.188,-0.1886,-0.1878,-0.1908,-0.1904,-0.1889,-0.1858,-0.1898,-0.1906,-0.191,-0.185,-0.1849,-0.1849,-0.1848,0,0,-0.1479,-0.1569,-0.1578,-0.1608,-0.1668,-0.1689,-0.1739,-0.1785,-0.1827,-0.1861,-0.1905,-0.1922,-0.1933,-0.1935,-0.1935,-0.1942,-0.1972,-0.193,-0.1929,-0.1933,-0.1997,-0.1876,-0.1868,-0.1967,-0.1967,-0.1968,-0.1997,0,-0.1481,-0.1535,-0.1587,-0.1636,-0.166,-0.1717,-0.1761,-0.1812,-0.1858,-0.1909,-0.1928,-0.1965,-0.195,-0.1968,-0.1973,-0.1975,-0.1984,-0.1966,-0.1965,-0.1965,-0.1845,-0.1868,-0.197,-0.2,-0.2001,-0.2001,-0.2002,0,-0.1483,-0.1526,-0.1573,-0.1653,-0.1671,-0.1709,-0.1795,-0.184,-0.1914,-0.195,-0.199,-0.201,-0.2036,-0.2015,-0.203,-0.2023,-0.2015,-0.201,-0.201,-0.188,-0.1849,-0.195,-0.2008,-0.2008,-0.2007,-0.2007,-0.2007,0,-0.1435,-0.1514,-0.1558,-0.1583,-0.1674,-0.1717,-0.1771,-0.1852,-0.1899,-0.198,-0.2017,-0.2053,-0.2076,-0.2074,-0.2061,-0.2055,-0.2071,-0.2056,-0.1942,-0.1934,-0.2017,-0.2012,-0.2064,-0.2064,-0.2064,-0.2064,-0.2064,0,-0.1405,-0.1442,-0.1545,-0.1566,-0.1628,-0.1701,-0.1774,-0.1835,-0.1923,-0.1966,-0.2033,-0.2057,-0.2092,-0.2103,-0.2084,-0.2017,-0.2087,-0.1944,-0.1928,-0.2037,-0.2034,-0.202,-0.2015,-0.2065,-0.2065,-0.2064,-0.2064,0,-0.1332,-0.1402,-0.1456,-0.1565,-0.1604,-0.1647,-0.1767,-0.1809,-0.1908,-0.1967,-0.1993,-0.2072,-0.208,-0.21,-0.2101,-0.203,-0.1991,-0.1953,-0.208,-0.2071,-0.185,-0.1847,-0.1826,-0.1822,-0.1818,-0.1815,-0.1813,0,-0.1295,-0.1317,-0.1439,-0.1474,-0.1526,-0.161,-0.1659,-0.1781,-0.182,-0.1949,-0.1954,-0.2019,-0.2048,-0.1955,-0.1989,-0.195,-0.1923,-0.1896,-0.1856,-0.1836,-0.1823,-0.1826,-0.1827,-0.1807,-0.1806,-0.1805,-0.1804,0,-0.1215,-0.1272,-0.1319,-0.139,-0.1453,-0.1517,-0.1597,-0.162,-0.1745,-0.1856,-0.1863,-0.1866,-0.1878,-0.1869,-0.1854,-0.1823,-0.1906,-0.1858,-0.1865,-0.1828,-0.1813,-0.1804,-0.181,-0.1792,-0.1794,-0.1795,-0.1795,0,-0.1155,-0.1168,-0.1234,-0.1287,-0.136,-0.1387,-0.1455,-0.1499,-0.1559,-0.1706,-0.1702,-0.1773,-0.1858,-0.1803,-0.1785,-0.1748,-0.1718,-0.1652,-0.1669,-0.1683,-0.1619,-0.1579,-0.1466,0,0,0,0,0,-0.108,-0.1083,-0.1122,-0.1172,-0.124,-0.128,-0.139,-0.1461,-0.1591,-0.1551,-0.1625,-0.1628,-0.1615,-0.1655,-0.1583,-0.1715,-0.172,-0.1624,-0.1653,-0.1723,-0.1738,-0.1673,0,0,0,0,0,0,-0.1029,-0.1059,-0.1076,-0.1057,-0.107,-0.1127,-0.1193,-0.1288,-0.128,-0.1418,-0.1419,-0.152,-0.1529,-0.1624,-0.1545,-0.1555,-0.1538,-0.1678,-0.1673,-0.1715,-0.1728,-0.174,-0.1678,0,0,0,0,0]},{"header":{"parameterUnit":"m.s-1","parameterCategory":2,"la1":30.2991,"la2":30.254,"lo1":-89.0895,"lo2":-89.0444,"dy":0.0017,"dx":0.0017,"nx":28,"ny":28,"refTime":"2025-08-28T03:00:00:Z","depth":"4","parameterNumber":3,"parameterNumberName":"V-component_of_CURRENTS"},"data":[0,0,0,0,0,0,0,0,0,0,0,0,0,0,0,0,0,0,0,0,0,0,0,0,0,0,0,0,0,0,0,0,0,0,0,0,0,0,0,0,0,0,0,0,0,0,0,0,0,0,0,0,0,0,0,0,0,0,-0.0131,-0.013,0,-0.0064,-0.0063,-0.0062,-0.0022,-0.0022,-0.0022,-0.0021,0.0075,0.0078,0.008,0,0,0,0,0,0,0,0,0,0,0,0,0,-0.0173,-0.0173,-0.0131,-0.013,-0.0129,-0.0064,-0.0063,-0.0062,-0.0022,-0.0022,-0.0022,-0.0021,0.0075,0.0078,0.008,0,0,0,0,0,0,0,0,0,0,0,0,0,-0.0135,-0.0173,-0.0131,-0.0102,-0.0098,-0.0064,-0.0063,-0.0062,-0.0022,-0.0022,-0.0021,-0.0021,0.0074,0.0077,0.0081,0.0099,0,0,0.0092,0.0094,0,0,0,0,0,0,0,0,-0.0137,-0.0133,-0.0107,-0.0104,-0.01,-0.0051,-0.0042,-0.0007,-0.0022,-0.005,-0.0021,-0.0021,0.0035,0.0042,0.0054,0.0103,0.0108,0.0092,0.0095,0.0096,0.0097,0,0,0,0,0,0,0,-0.014,-0.0136,-0.0104,-0.0106,-0.0102,-0.0074,-0.0069,-0.0035,-0.0009,-0.0048,-0.0045,-0.0038,0.0038,0.0051,0.0057,0.0109,0.0092,0.0096,0.0098,0.0099,0.0181,0.0181,0,0,0,0,0,0,-0.0152,-0.0139,-0.0106,-0.0102,-0.0119,-0.0074,-0.0068,-0.0067,-0.001,-0.0001,-0.0039,-0.0037,0.0044,0.0053,0.0061,0.0081,0.0096,0.01,0.0102,0.0181,0.0181,0.0181,0,0,0,0,0,0,-0.0153,-0.015,-0.0109,-0.0119,-0.0112,-0.0074,-0.0072,-0.0066,-0.0053,-0.0003,0.0006,-0.0034,0.0045,0.0056,0.0088,0.0086,0.0101,0.0105,0.0181,0.0181,0.0181,0.0126,0,0,0,0,0,0,-0.0155,-0.0151,-0.0155,-0.012,-0.0111,-0.0093,-0.0073,-0.0065,-0.005,-0.0046,0.0005,0.0014,0.0046,0.0082,0.0091,0.0091,0.0107,0.0181,0.0181,0.0181,0.0127,0.0124,0.012,0,0,0,0,0,-0.0157,-0.0162,-0.0156,-0.0152,-0.0119,-0.0094,-0.0087,-0.0059,-0.005,-0.0046,-0.0013,0.0012,0.0088,0.0085,0.0096,0.0097,0.0181,0.0181,0.0181,0.0129,0.0124,0.0121,0,0,0,0,0,0,-0.0179,-0.0157,-0.015,-0.0148,-0.0126,-0.0087,-0.0081,-0.0063,-0.0034,-0.0032,0.0014,0.0025,0.0052,0.0082,0.0077,0.012,0.0138,0.014,0.0095,0.0091,0.0088,0.0079,0.011,0,0,0,0,0,-0.0188,-0.019,-0.0161,-0.0161,-0.0152,-0.0119,-0.0106,-0.0088,-0.0057,-0.0044,-0.001,0.0028,0.0061,0.0081,0.0114,0.0139,0.0172,0.0147,0.0143,0.014,0.014,0.0187,0.0188,0.0181,0.0181,0.0181,0,0,-0.0198,-0.0186,-0.0187,-0.0166,-0.0147,-0.0139,-0.0111,-0.0095,-0.0087,-0.0038,-0.0018,0.0016,0.0064,0.009,0.0105,0.0115,0.0158,0.014,0.0137,0.0139,0.0187,0.0188,0.0189,0.0181,0.0181,0.0181,0,0,-0.0214,-0.0207,-0.0212,-0.0198,-0.0175,-0.0156,-0.0155,-0.012,-0.0105,-0.0082,-0.0046,-0.0013,0.0035,0.0071,0.0095,0.0094,0.0136,0.0102,0.0081,0.0126,0.0127,0.0128,0.0164,0.0169,0.0103,0.0102,0.0102,0,-0.0225,-0.0229,-0.0208,-0.0206,-0.0202,-0.0168,-0.0171,-0.0148,-0.0108,-0.0096,-0.0084,-0.001,0.0028,0.0068,0.0066,0.0086,0.0115,0.0091,0.0121,0.0123,0.0125,0.0162,0.0168,0.01,0.01,0.01,0.0101,0,-0.0242,-0.0245,-0.0247,-0.0239,-0.0231,-0.0228,-0.0199,-0.0187,-0.0167,-0.014,-0.0102,-0.0048,-0.0003,0.0013,0.004,0.0074,0.009,0.0108,0.0129,0.0123,0.0162,0.0169,0.0096,0.0097,0.0098,0.0098,0,0,-0.0268,-0.0261,-0.0264,-0.0272,-0.0252,-0.0249,-0.0238,-0.0217,-0.0211,-0.0166,-0.0148,-0.0088,-0.0057,-0.0027,0.0015,0.0055,0.0093,0.0083,0.0086,0.0113,0.0187,0.0173,0.0181,0.0115,0.0116,0.0117,0.0205,0,-0.0288,-0.0304,-0.0292,-0.0311,-0.0318,-0.0293,-0.029,-0.0266,-0.0236,-0.0209,-0.0145,-0.0111,-0.0072,-0.0053,-0.0005,0.0071,0.0111,0.0067,0.0194,0.0198,0.0182,0.0188,0.0121,0.0211,0.0213,0.0214,0.0215,0,-0.0308,-0.032,-0.0343,-0.0357,-0.0358,-0.0364,-0.036,-0.035,-0.0298,-0.0273,-0.022,-0.0167,-0.0095,-0.0068,0.0063,0.0033,0.0102,0.0161,0.0166,0.0179,0.0198,0.0222,0.0229,0.0228,0.0227,0.0226,0.0225,0,-0.0342,-0.0358,-0.0383,-0.0387,-0.0391,-0.0401,-0.0403,-0.037,-0.0367,-0.0309,-0.0295,-0.0199,-0.0154,-0.0049,0.0073,0.007,0.0214,0.0228,0.0282,0.0282,0.0292,0.029,0.0314,0.0314,0.0314,0.0314,0.0313,0,-0.0366,-0.0389,-0.0405,-0.0419,-0.0462,-0.0445,-0.0472,-0.0454,-0.0425,-0.0418,-0.0332,-0.0299,-0.0147,-0.0046,0.0064,0.0196,0.0212,0.0281,0.0305,0.0266,0.026,0.0297,0.0294,0.0317,0.0316,0.0316,0.0315,0,-0.0391,-0.0397,-0.0436,-0.0461,-0.0476,-0.0506,-0.0533,-0.0546,-0.0508,-0.0494,-0.0478,-0.0367,-0.0232,-0.008,0.0096,0.0176,0.0308,0.0348,0.0289,0.0309,0.0348,0.0341,0.0418,0.0419,0.0419,0.0419,0.0419,0,-0.0401,-0.0421,-0.0477,-0.0515,-0.0531,-0.0575,-0.0606,-0.0592,-0.0597,-0.0533,-0.0524,-0.0399,-0.0309,-0.0071,0.0088,0.0299,0.0324,0.0385,0.0371,0.0343,0.036,0.0352,0.0345,0.042,0.042,0.042,0.042,0,-0.0428,-0.045,-0.0485,-0.0565,-0.0615,-0.0667,-0.0699,-0.0707,-0.0675,-0.0648,-0.0557,-0.0423,-0.0272,-0.0079,0.0084,0.0234,0.0344,0.0388,0.0389,0.0377,0.0345,0.036,0.0353,0.0421,0.0421,0.0421,0.0421,0,-0.045,-0.0489,-0.0542,-0.0609,-0.0679,-0.0729,-0.0744,-0.0737,-0.073,-0.0645,-0.0616,-0.0441,-0.0334,-0.0112,0.004,0.0186,0.0221,0.0258,0.0266,0.0267,0.0195,0.0132,0.0165,0,0,0,0,0,-0.0467,-0.0514,-0.0585,-0.0655,-0.0725,-0.0763,-0.0794,-0.0792,-0.0758,-0.0705,-0.0656,-0.0511,-0.0271,-0.0163,-0.0019,0.004,0.0241,0.0212,0.0285,0.0426,0.0425,0.0365,0,0,0,0,0,0,-0.0482,-0.0548,-0.0586,-0.0677,-0.0733,-0.0803,-0.0824,-0.0803,-0.076,-0.0705,-0.0578,-0.0494,-0.026,-0.0357,-0.0023,0.0023,0.0085,0.0331,0.0334,0.0426,0.0425,0.0424,0.0363,0,0,0,0,0]}]]